THORAD DELTA 1 R/B(2), 9330

Orbit data source: Space-Track

THORAD DELTA 1 R/B(2), 9330 is space debris in HEO originally from a launch on Thu, 19 Dec 1974 UTC launched from the Air Force Eastern Test Range (AFETR). Debris objects in space refer to the collection of defunct objects orbiting the Earth. Examples of debris include non-operational satellites, rocket bodies, and fragments generated from explosions, collisions, or faulty payload assembly.

Loading next visibility...
Identifier
9330, 1974-101G
Orbit
HEO
Last TLE update
1 day ago
Origin
Manufacturer
Thiokol/TE
Mission
Spacecraft
Bus & Motor
STAR 37, Unknown motor
Mass
~83 kg wet, 83 kg dry
Launch date (UTC)
1974-12-19 (50 years ago)
Launch vehicle
Unknown
Launch site
Air Force Eastern Test Range (AFETR)
Object type
Payload
Rocket body
Debris
Shape & HBR
Domed Cyl + 1 Nozzle, 1.67 m
Radar Cross Section
1.559 m², Large (>1 m²)

Expand to show TLE details & history

TLE from 1 day ago
0 THORAD DELTA 1 R/B(2)
1  9330U 74101G   25128.40688237  .00002105  00000-0  31919-2 0  9997
2  9330  12.6055 115.9084 7217043 327.7416   3.6351  2.30758606409679
Epoch: 2025-05-08T09:45Z
Definitive object data (Epoch: 2025-05-08T09:45:54.636Z)
Latitude
-0.00044°
Longitude
103.05331°
Altitude
821.043 km
Speed
9.708 km/s
True Right ascension
07h 44m 02s
True Declination
0° 00' 02"
Sunlit
Object was in daylight at TLE epoch
Visualization TLE readout
Latitude
-11.05829°
Longitude
-16.59353°
Altitude
4,798.628 km
Speed
7.406 km/s
Apparent Right ascension
23h 05m 18s
Apparent Declination
-44° 36' 33"
Sunlit
Object is in daylight
Visualization observer readout
Local Sidereal Time
00:37:10
Azimuth
196.151° SSW
Elevation
2.988°
Doppler factor
1
Orbital elements
Apogee altitude
35,278.121 km
Perigee altitude
355.166 km
Semi-major axis
24,194.781 km
Eccentricity
0.7217043
Inclination
12.6055°
RAAN
115.9084°
Arg. of periapsis
327.7416°
True anomaly
31.14811°
Mean anomaly
3.6351°
Eccentric anomaly
12.78739°
Mean motion
0.57671 °/min
BSTAR
0.0031919
Orbital period
624.23 mins
Loading maneuver chart data...
Loading SW <> Apogee altitude chart data...
Loading historical data...
Loading historical data...
Loading historical data...
Loading historical data...
Loading historical data...
Loading historical data...
Loading historical data...

THORAD DELTA 1 R/B(2) Visibility forecast

Observer location: undefined°, undefined°

Span
Click to sort rows by Start time (UTC) header in descending order
Start Az.
Max El. time (UTC)
Max El. Az.
Max El.
End time (UTC)
End Az.
571 mins2025-05-10 03:32:41.906Z217.801° SW2025-05-10 08:59:41.906Z161.005° S36.785°2025-05-10 13:03:41.906Z153.882° SSE
|